Temperature
23 20 20 20 21 22 23 23 23 24 25 25 24 24 24 25 25 25 24 24 23 23 24 24 23 23 22 22 22 21 21 20 20 19 19 19 19 18 18 18 18 17 17 17
21 20 21 22 23 23 23 23 23 24 25 26 24 24 24 24 25 25 24 24 23 23 23 23 23 22 22 22 21 21 21 20 20 19 19 19 19 18 18 18 17 17 17 17
20 21 23 24 23 24 23 23 23 24 25 25 25 23 24 24 25 25 25 24 23 23 23 23 22 22 22 22 21 21 20 20 20 19 19 18 18 18 18 17 17 17 17 17
21 22 24 23 23 24 22 24 25 25 23 21 23 21 22 22 23 23 23 23 23 23 23 23 22 22 22 22 22 21 20 20 19 19 19 19 18 18 18 17 17 17 17 17
21 23 23 23 24 24 23 24 24 24 23 21 22 21 21 21 22 22 22 23 23 23 23 23 22 22 22 22 21 21 20 20 19 19 19 18 18 18 18 17 17 17 17 17
21 23 23 24 25 25 24 24 22 20 19 20 21 21 20 20 22 22 22 22 22 22 22 22 22 22 22 21 21 20 20 20 19 19 18 18 18 18 17 17 17 17 17 16
21 22 23 24 24 24 23 20 19 20 18 19 20 21 20 21 22 22 22 22 22 22 21 22 22 22 22 21 20 20 20 19 19 19 18 18 18 18 17 17 17 17 17 17
20 20 22 24 23 22 22 20 19 19 19 19 21 20 21 22 22 22 22 22 21 21 21 21 21 21 21 21 20 20 19 19 18 18 18 18 18 18 17 17 17 17 17 17
19 20 23 24 24 23 22 20 19 18 19 19 19 21 21 22 21 21 21 21 20 21 21 21 21 21 21 20 20 20 19 19 18 18 18 17 17 17 17 17 17 17 17 16
20 20 22 23 24 23 22 21 18 18 18 19 20 21 20 21 20 20 20 20 20 20 20 20 20 20 20 20 20 19 19 18 18 18 18 17 17 17 17 17 17 17 16 16
20 19 20 21 22 22 22 21 19 16 17 18 18 19 21 20 19 19 19 20 20 20 20 20 20 20 20 20 19 19 18 18 18 18 17 17 17 17 16 16 16 16 16 16
19 17 18 19 21 22 21 20 18 18 17 17 17 18 20 19 19 19 20 20 20 19 20 20 19 19 19 19 19 19 18 18 18 17 17 17 17 16 16 16 16 16 16 16
19 17 17 18 19 20 21 20 19 17 16 16 17 18 20 19 19 20 20 19 19 19 19 19 19 19 19 18 18 18 18 17 17 17 17 17 16 16 16 16 16 16 16 16
19 16 17 17 18 19 20 20 20 17 16 17 18 19 19 18 18 18 19 19 19 19 19 19 18 18 18 18 18 17 17 17 17 17 16 16 16 16 16 16 16 16 16 15
17 17 18 18 19 20 20 20 20 19 18 18 18 19 19 18 18 18 19 18 18 18 18 18 18 18 18 17 17 17 17 17 17 16 16 16 16 16 16 16 15 15 15 15
15 16 17 18 20 20 20 20 20 20 19 19 19 18 18 18 19 18 18 18 18 18 18 17 17 17 17 17 17 17 17 17 16 16 16 16 16 16 16 15 15 15 15 15
14 15 15 16 18 19 18 19 19 19 19 18 18 18 17 17 17 18 18 18 18 18 17 17 17 17 17 17 17 17 17 16 16 16 16 16 15 15 15 15 15 15 15 15
14 14 13 15 17 17 17 18 19 18 18 17 17 17 17 17 17 18 18 18 18 18 17 17 17 17 17 17 17 17 16 16 16 16 15 15 15 15 15 15 15 15 15 15
14 14 14 14 15 16 17 18 18 17 16 16 16 16 16 17 17 17 18 18 18 17 17 17 17 17 17 17 16 16 16 16 16 15 15 15 15 15 15 15 14 14 14 14
14 13 13 14 15 15 16 17 18 17 16 16 15 15 15 16 15 15 17 18 17 17 17 17 17 17 17 16 16 16 16 15 15 15 15 15 15 15 15 14 14 14 14 14
14 13 13 14 14 15 15 17 17 16 15 15 15 15 15 14 15 16 16 17 17 17 17 17 17 16 16 16 16 16 15 15 15 15 15 15 15 14 14 14 14 14 14 14
13 13 13 13 13 14 15 15 14 14 15 15 15 15 15 15 15 15 16 16 16 16 16 16 16 16 16 15 15 15 15 15 15 15 15 14 14 14 14 14 14 14 14 14
12 12 12 12 13 13 14 14 15 15 14 15 15 15 15 15 15 15 15 15 16 16 16 16 16 15 15 15 15 15 15 15 14 14 14 14 14 14 14 14 14 14 14 14
12 12 12 12 12 13 14 14 15 15 15 15 15 15 15 15 15 14 14 15 15 15 15 15 15 15 15 15 15 15 15 14 14 14 14 14 14 14 14 14 14 14 14 14
12 11 11 12 12 13 14 14 14 14 14 14 15 15 14 14 14 14 15 15 15 15 15 15 15 15 15 14 14 14 14 14 14 14 14 14 14 14 14 14 14 14 14 14
11 11 11 11 12 12 13 13 14 14 14 14 14 14 14 14 15 14 14 15 15 15 15 14 14 14 14 14 14 14 14 14 14 14 13 13 13 13 13 13 13 13 13 13
Wind_Speed
3 3 6 10 9 8 6 6 8 10 8 3 7 8 9 8 8 9 10 11 13 12 11 11 12 12 11 9 9 9 9 8 7 5 5 4 3 2 1 2 3 4 4 4
1 7 12 9 8 8 8 9 9 9 8 4 5 6 6 7 9 11 12 12 13 11 10 10 10 10 11 10 9 9 9 9 8 6 5 4 4 2 2 1 2 3 4 4
9 9 7 7 9 9 9 9 9 8 6 4 1 4 4 4 3 5 8 11 12 15 15 13 11 10 10 10 10 9 8 8 7 7 4 3 3 2 1 1 1 1 3 3
8 9 7 7 9 8 9 9 8 6 2 4 0 3 7 5 3 4 6 9 11 13 13 11 11 10 10 10 10 9 8 8 7 7 7 7 5 4 4 3 2 2 2 3
7 5 6 7 9 7 8 7 5 4 2 2 2 2 7 3 4 6 7 10 11 12 12 11 10 11 10 10 10 9 9 8 7 7 8 7 5 4 2 2 3 2 1 2
8 6 6 8 8 6 4 1 5 4 4 2 5 4 7 5 7 6 6 8 10 11 11 10 9 9 8 8 8 9 9 8 7 7 7 7 7 6 5 4 3 2 2 1
7 9 7 4 4 4 2 4 3 5 3 6 4 3 8 7 5 6 8 9 9 11 10 10 9 8 8 9 9 9 9 7 7 7 6 6 7 6 6 5 5 4 2 2
5 8 6 4 6 6 4 9 7 5 5 5 3 5 6 4 0 2 5 8 7 9 9 10 9 9 9 10 9 9 9 8 7 7 6 5 6 5 4 5 5 4 4 3
6 7 6 5 4 7 4 4 9 7 2 2 4 4 4 3 4 4 6 8 7 6 7 8 8 8 9 9 9 10 9 7 7 7 6 6 6 5 5 4 4 3 3 3
6 5 6 5 2 0 7 7 5 5 4 3 5 4 4 2 1 4 6 6 6 6 6 6 7 8 7 7 7 8 8 8 6 6 6 6 5 5 5 4 4 4 3 3
5 5 5 3 1 3 1 2 4 4 5 6 4 6 4 6 4 6 7 7 7 7 7 6 6 7 7 7 7 7 7 6 6 6 5 5 4 4 5 4 4 4 3 3
3 5 4 7 6 4 5 5 6 5 4 5 4 7 5 3 5 6 7 6 6 6 7 7 7 7 7 7 6 6 6 6 6 5 5 5 4 4 4 4 4 4 3 3
3 4 1 6 6 3 1 2 4 5 4 4 4 6 3 0 2 3 7 7 7 6 8 8 7 7 7 6 6 6 6 5 5 5 5 5 4 4 4 4 4 4 4 3
4 4 6 8 7 3 3 3 1 5 4 4 6 6 5 2 2 2 4 7 7 7 8 8 7 7 7 6 6 6 5 5 5 5 4 4 4 4 4 4 4 4 4 4
5 3 3 4 5 2 2 4 3 2 6 7 8 7 8 6 6 6 5 6 8 8 8 8 7 7 7 7 6 6 6 5 6 5 5 4 3 3 3 3 4 4 4 4
4 2 0 2 2 1 4 5 5 4 3 4 5 6 6 4 4 4 5 7 8 8 8 8 6 6 7 8 7 6 6 5 5 5 4 4 3 3 2 2 3 4 4 3
1 3 2 3 3 2 4 4 3 2 3 4 6 7 3 2 4 5 6 7 8 9 8 8 7 6 6 7 8 8 7 6 6 5 4 4 4 4 3 2 3 4 4 3
4 3 3 1 2 4 6 2 0 2 2 2 2 2 4 6 5 4 5 6 5 7 7 7 6 5 5 5 6 7 6 6 6 5 4 4 4 4 3 3 3 4 3 4
6 6 3 2 2 4 4 2 1 1 2 3 0 1 2 4 5 3 1 4 5 6 6 6 6 5 5 6 7 7 6 6 6 5 4 4 4 4 4 4 4 3 4 4
4 5 4 3 2 4 4 5 4 2 1 3 1 2 3 5 3 2 1 2 5 5 5 4 4 4 5 5 7 7 6 5 5 5 5 4 4 5 5 5 4 3 3 4
3 2 3 3 3 4 5 6 3 2 4 4 0 2 4 3 4 2 1 1 4 6 6 6 5 4 5 5 7 6 6 6 5 5 4 3 3 4 5 4 3 3 3 3
3 2 3 3 3 5 5 3 1 3 2 0 1 3 4 3 2 2 1 2 3 5 6 7 5 4 3 5 7 6 5 5 4 4 4 4 4 4 4 4 3 3 4 4
1 3 3 4 4 3 0 1 2 1 1 0 1 2 4 4 3 2 1 2 3 4 5 5 6 5 3 4 6 6 4 4 4 4 4 4 4 3 4 4 4 3 3 3
2 0 2 1 1 2 1 1 1 1 0 0 1 2 4 4 4 3 3 3 3 3 3 4 6 5 3 3 5 5 4 4 5 4 4 3 4 3 3 3 3 3 3 3
3 1 1 1 2 3 3 2 2 2 2 1 1 2 3 4 4 4 3 2 2 3 3 4 5 5 3 3 3 4 4 4 4 3 3 3 3 3 2 2 2 3 3 5
2 2 3 4 4 2 3 2 2 1 1 1 2 2 1 3 4 4 2 2 3 3 3 4 4 4 3 4 3 3 4 5 4 3 3 3 3 3 3 2 1 2 0 2
Wind_Direction
225 147 225 228 211 210 233 258 271 272 270 242 230 227 231 213 189 181 176 172 174 177 173 168 169 163 159 154 150 153 152 155 150 149 154 156 161 157 151 171 171 169 161 152
345 241 234 232 239 233 243 259 269 281 275 246 240 237 225 206 199 185 178 174 171 169 164 167 162 158 158 158 157 155 158 161 163 166 166 165 161 169 174 165 161 165 154 155
213 239 233 232 245 247 253 240 246 256 292 329 21 313 279 255 216 190 177 167 167 168 170 168 162 161 158 159 161 162 162 164 163 153 139 125 106 90 112 152 191 181 161 160
238 246 243 236 242 230 253 244 236 251 281 288 143 258 280 263 253 213 186 166 173 174 169 161 156 161 167 170 166 158 159 161 161 152 153 154 162 174 194 187 188 182 166 163
249 242 229 237 239 227 229 244 245 253 220 286 315 167 275 288 251 239 200 184 176 170 160 158 161 166 168 169 165 161 157 160 160 163 164 161 164 174 163 153 155 171 182 177
250 261 222 227 247 230 221 357 6 35 72 275 252 186 268 247 223 231 201 182 170 163 160 160 162 160 159 159 159 157 155 159 160 159 158 162 164 162 152 157 168 186 194 199
282 280 266 243 271 287 137 99 23 348 349 253 254 194 246 256 232 208 189 177 166 162 159 160 160 164 159 157 162 157 155 160 160 159 162 166 168 165 170 171 176 175 183 208
227 272 259 236 200 212 211 145 159 201 233 274 296 225 251 267 192 138 143 148 145 154 161 164 166 169 164 165 162 154 155 158 163 167 170 171 167 168 175 176 176 182 192 205
199 251 273 255 216 171 188 186 171 153 206 261 278 275 304 23 67 75 105 119 130 146 158 162 157 162 162 160 160 157 156 159 163 167 165 168 171 171 172 173 172 180 190 194
182 243 280 288 333 286 168 165 106 127 172 248 284 265 244 255 111 103 120 131 134 134 133 146 150 146 143 144 146 149 150 160 166 163 164 167 170 179 177 166 171 177 183 181
175 196 285 337 197 229 103 123 123 141 161 170 241 267 246 202 185 162 165 168 158 150 147 138 136 140 136 134 137 146 149 147 154 163 160 159 166 174 173 174 181 179 177 177
180 152 235 255 254 219 182 175 148 160 220 175 183 257 276 197 185 165 164 167 157 149 144 141 139 132 132 135 139 141 144 149 156 155 155 165 175 163 167 181 181 172 169 174
160 127 173 324 329 355 116 169 156 143 143 168 183 256 295 275 126 142 151 149 151 146 133 135 138 141 142 144 148 149 147 148 147 142 149 157 163 162 170 186 179 170 163 158
122 128 168 200 221 239 283 293 182 133 158 210 217 237 277 264 146 144 149 151 150 151 146 145 151 152 152 152 155 152 145 143 136 129 138 151 158 167 175 181 178 171 162 158
87 142 188 210 230 221 266 281 269 211 191 198 228 220 234 222 193 175 162 151 144 145 149 155 160 157 153 150 149 151 146 143 139 139 147 160 162 159 160 170 176 168 164 166
64 102 64 290 264 287 291 269 259 252 231 217 216 237 239 219 171 146 155 155 154 155 156 154 150 159 163 159 160 154 150 147 141 146 156 158 146 147 166 182 173 159 159 156
72 99 76 277 295 14 281 261 228 231 235 202 219 231 203 174 181 177 177 171 165 161 158 156 160 164 174 172 162 159 158 149 144 147 157 160 159 164 179 185 165 161 162 148
150 118 132 205 51 221 239 261 228 218 272 306 265 235 172 170 171 162 161 156 155 159 159 160 160 171 173 168 154 150 148 150 151 153 159 162 168 176 175 161 169 168 161 151
157 146 136 138 186 264 287 307 290 182 300 329 225 70 86 103 66 44 104 140 154 161 161 165 166 162 152 153 152 144 143 146 151 159 165 170 170 175 172 168 175 172 154 151
102 115 129 141 170 230 268 306 309 118 243 315 78 100 103 90 105 256 265 134 143 144 147 147 141 129 141 156 150 143 145 147 160 171 174 173 169 165 170 177 174 163 156 161
71 82 148 167 202 250 298 317 5 137 239 286 176 137 132 132 186 232 286 112 137 142 140 138 139 148 163 159 146 148 154 170 178 168 163 167 167 169 173 170 162 157 161 154
159 154 179 159 191 252 320 21 75 232 270 182 134 145 137 124 109 90 83 107 133 142 142 146 148 155 167 161 150 154 173 184 172 160 160 168 174 176 165 152 161 159 156 162
154 184 187 183 200 238 270 177 226 169 97 71 164 160 140 123 116 111 121 134 149 154 152 153 154 154 161 164 157 163 181 165 158 157 165 175 178 174 164 166 167 160 165 174
314 326 121 127 270 286 307 14 50 57 64 313 149 149 137 134 149 148 152 141 145 149 149 148 144 146 161 162 156 164 170 157 150 163 174 174 168 165 161 165 170 171 182 186
280 323 98 215 282 341 337 354 11 18 22 35 71 129 153 151 143 135 129 143 159 156 159 151 151 157 170 164 153 157 156 144 145 160 165 170 170 165 162 167 183 188 204 200
275 193 178 221 238 218 262 331 358 29 3 89 85 66 99 130 122 112 129 160 141 139 141 140 147 156 163 156 159 161 156 146 148 161 169 168 164 159 159 152 103 26 153 218
Height
1490 1497 1502 1498 1497 1499 1499 1501 1502 1494 1484 1486 1489 1488 1484 1482 1484 1486 1488 1489 1492 1494 1496 1500 1502 1504 1507 1509 1511 1513 1515 1516 1518 1519 1520 1520 1521 1522 1522 1523 1523 1523 1523 1524
1495 1498 1490 1489 1490 1493 1495 1500 1500 1491 1482 1483 1486 1486 1481 1480 1481 1481 1484 1486 1488 1491 1495 1498 1500 1503 1505 1507 1509 1511 1513 1514 1515 1517 1518 1519 1520 1521 1522 1522 1522 1522 1523 1523
1496 1489 1483 1487 1489 1492 1493 1497 1496 1493 1485 1481 1486 1491 1484 1480 1479 1479 1481 1482 1484 1487 1491 1494 1497 1500 1502 1505 1507 1509 1511 1513 1514 1515 1517 1519 1520 1520 1521 1521 1521 1521 1522 1522
1489 1482 1482 1485 1486 1487 1496 1485 1485 1486 1494 1501 1493 1511 1493 1483 1481 1479 1481 1481 1483 1485 1488 1491 1494 1497 1500 1502 1505 1507 1509 1511 1512 1514 1516 1517 1517 1518 1519 1520 1520 1521 1521 1521
1486 1479 1481 1484 1481 1480 1484 1478 1481 1484 1492 1500 1497 1508 1501 1485 1485 1480 1479 1480 1481 1483 1486 1489 1492 1495 1498 1500 1503 1505 1507 1509 1511 1513 1514 1515 1516 1517 1519 1519 1520 1520 1520 1520
1479 1474 1475 1475 1473 1474 1475 1479 1483 1490 1500 1513 1501 1506 1505 1489 1481 1477 1475 1477 1479 1482 1484 1488 1491 1493 1496 1499 1501 1503 1505 1507 1509 1510 1512 1514 1515 1516 1517 1518 1519 1519 1519 1519
1483 1475 1471 1470 1475 1474 1477 1495 1514 1516 1523 1517 1498 1501 1499 1479 1473 1472 1473 1475 1477 1480 1483 1486 1489 1492 1494 1497 1499 1501 1503 1505 1507 1509 1511 1512 1514 1515 1516 1517 1517 1517 1518 1518
1493 1490 1472 1467 1472 1478 1479 1491 1515 1525 1526 1515 1498 1501 1488 1473 1470 1470 1471 1473 1476 1479 1482 1484 1487 1490 1492 1495 1497 1500 1502 1504 1507 1509 1510 1511 1512 1513 1514 1515 1516 1516 1516 1517
1489 1486 1466 1463 1463 1468 1478 1487 1489 1506 1509 1515 1507 1493 1480 1472 1471 1470 1471 1473 1476 1479 1482 1485 1486 1488 1491 1493 1496 1498 1501 1503 1505 1507 1509 1510 1511 1512 1513 1514 1515 1515 1516 1516
1476 1483 1470 1463 1462 1464 1469 1476 1493 1506 1518 1521 1508 1498 1494 1481 1476 1473 1473 1474 1476 1479 1481 1484 1486 1487 1490 1492 1495 1497 1500 1502 1504 1506 1507 1508 1510 1511 1512 1512 1513 1513 1514 1515
1470 1481 1477 1470 1471 1473 1473 1479 1488 1501 1506 1517 1519 1506 1478 1477 1474 1474 1473 1473 1474 1477 1479 1482 1485 1488 1490 1492 1495 1497 1499 1501 1502 1504 1505 1506 1508 1509 1510 1510 1511 1512 1513 1513
1468 1479 1485 1476 1466 1462 1468 1475 1485 1502 1506 1506 1511 1503 1472 1472 1471 1471 1472 1473 1474 1476 1478 1480 1484 1487 1489 1491 1494 1496 1498 1499 1501 1502 1503 1504 1506 1507 1508 1509 1509 1510 1511 1512
1466 1480 1492 1488 1480 1470 1470 1472 1477 1487 1498 1505 1508 1498 1471 1470 1470 1470 1471 1472 1475 1476 1477 1480 1483 1486 1489 1491 1493 1495 1496 1498 1499 1500 1501 1503 1504 1505 1506 1507 1508 1509 1510 1510
1461 1476 1486 1492 1486 1476 1475 1473 1473 1483 1498 1499 1494 1486 1476 1473 1471 1471 1472 1472 1474 1476 1477 1479 1483 1485 1487 1490 1492 1493 1495 1497 1498 1499 1500 1501 1503 1504 1505 1506 1507 1507 1508 1509
1463 1475 1473 1473 1469 1468 1471 1471 1471 1476 1481 1488 1483 1479 1474 1471 1470 1470 1471 1472 1473 1475 1476 1479 1482 1484 1486 1488 1490 1492 1493 1495 1496 1498 1499 1500 1501 1502 1503 1504 1505 1506 1506 1507
1466 1474 1473 1473 1467 1467 1470 1468 1468 1470 1471 1473 1474 1474 1466 1466 1467 1468 1470 1471 1472 1473 1475 1478 1481 1483 1484 1486 1488 1490 1492 1494 1495 1496 1497 1498 1499 1500 1501 1502 1503 1504 1505 1505
1471 1475 1480 1482 1470 1470 1477 1469 1468 1469 1468 1470 1474 1470 1464 1466 1466 1466 1468 1469 1470 1472 1475 1476 1479 1481 1483 1484 1486 1489 1491 1492 1494 1495 1496 1497 1497 1498 1499 1500 1501 1502 1503 1504
1470 1475 1483 1484 1479 1488 1476 1463 1462 1465 1465 1464 1464 1463 1462 1463 1464 1465 1467 1468 1470 1472 1474 1476 1478 1479 1481 1483 1485 1488 1490 1491 1493 1494 1495 1495 1496 1497 1498 1499 1499 1500 1502 1503
1463 1472 1481 1487 1487 1481 1469 1463 1462 1465 1468 1464 1463 1462 1462 1462 1463 1466 1467 1468 1469 1472 1473 1475 1477 1478 1479 1482 1484 1486 1488 1490 1491 1492 1493 1494 1495 1495 1496 1497 1498 1499 1501 1502
1462 1467 1478 1483 1486 1486 1474 1462 1459 1463 1471 1464 1462 1462 1463 1462 1470 1469 1467 1467 1468 1471 1473 1475 1477 1478 1479 1481 1483 1485 1487 1488 1489 1490 1492 1493 1494 1494 1495 1496 1498 1499 1500 1501
1472 1475 1479 1482 1485 1478 1468 1462 1460 1472 1472 1463 1461 1462 1462 1463 1466 1467 1466 1466 1468 1470 1472 1474 1475 1477 1479 1480 1481 1483 1484 1486 1488 1489 1490 1491 1492 1493 1495 1496 1497 1498 1499 1500
1474 1478 1479 1481 1485 1482 1467 1464 1468 1469 1464 1462 1461 1461 1462 1462 1463 1465 1466 1466 1467 1469 1471 1473 1475 1476 1478 1479 1480 1481 1482 1485 1486 1487 1489 1490 1491 1492 1493 1495 1496 1497 1498 1498
1472 1474 1474 1476 1477 1470 1466 1466 1465 1464 1463 1462 1461 1461 1461 1462 1463 1465 1466 1466 1467 1468 1469 1472 1473 1474 1476 1477 1478 1479 1481 1483 1485 1486 1487 1488 1489 1491 1492 1493 1495 1496 1496 1497
1471 1469 1470 1472 1469 1467 1465 1464 1463 1463 1462 1462 1461 1461 1461 1461 1463 1465 1466 1466 1467 1468 1469 1470 1471 1472 1474 1475 1477 1479 1480 1482 1483 1484 1485 1487 1488 1489 1490 1492 1493 1494 1494 1495
1472 1470 1470 1471 1469 1467 1465 1464 1463 1462 1462 1462 1462 1462 1462 1463 1463 1464 1464 1464 1466 1467 1468 1469 1470 1471 1472 1474 1475 1477 1479 1480 1481 1482 1483 1485 1486 1487 1489 1490 1491 1492 1493 1493
1470 1470 1471 1471 1467 1467 1466 1464 1463 1462 1462 1461 1462 1462 1462 1462 1462 1463 1464 1464 1465 1466 1467 1468 1469 1470 1471 1472 1473 1475 1476 1478 1479 1480 1481 1483 1484 1485 1486 1487 1489 1490 1491 1491